Regional Weather Roundup
Issued by NWS

Home | Current Version | Previous Version | Text Only | Print | Product List | Glossary On
Versions: 1 2 3 4 5 6 7 8 9 10 11 12 13 14 15 16 17 18 19 20 21 22 23 24 25 26 27 28 29 30 31 32 33 34 35 36 37 38 39 40 41 42 43 44 45 46 47 48 49 50
000
ASUS44 KMEG 140310
RWRTN
TENNESSEE HOURLY STATE WEATHER ROUNDUP
NATIONAL WEATHER SERVICE MEMPHIS TN
1000 PM CDT SUN JUL 13 2014

TNZ002-004-019-021-049-052-054-088>092-140400-
WEST TENNESSEE

CITY           SKY/WX    TMP DP  RH WIND       PRES   REMARKS
MEMPHIS INTL   PTCLDY    84  74  71 S5        30.00S HX  91
NWS MEMPHIS      N/A     82 N/A N/A MISG        N/A
JACKSON        CLEAR     78  74  87 S5        30.00R
DYERSBURG      CLEAR     82  66  57 CALM      29.98S
UNION CITY     CLEAR     82  73  74 S7        29.96S
PARIS          CLEAR     76  71  84 S6        30.00R
LEXINGTON      CLEAR     79  75  89 S3        30.01R
SAVANNAH       PTCLDY    75  75 100 CALM      30.03R
$$

TNZ008-025-027-028-033-062-065-066-140400-
NORTH MIDDLE TENNESSEE

CITY           SKY/WX    TMP DP  RH WIND       PRES   REMARKS
NASHVILLE      PTCLDY    84  71  65 SW5       30.01R
DICKSON        CLEAR     81  72  74 SW7       30.01S
PORTLAND       PTCLDY    81  70  69 SW6       30.00R
CLARKSVILLE    CLEAR     83  72  69 SW8       29.98R
LEBANON        CLEAR     82  70  67 SW5       30.00R
SMYRNA         CLEAR     82  72  72 SW6       30.02R
MURFREESBORO   CLEAR     84  70  63 S6        30.01R
COOKEVILLE     CLEAR     79  73  83 CALM      30.04S
GALLATIN       CLEAR     84  72  67 CALM      30.01R
CROSSVILLE     PTCLDY    75  68  78 VRB5      30.11R
$$

TNZ061-075-076-078-094-096-097-140400-
SOUTH MIDDLE TENNESSEE

CITY           SKY/WX    TMP DP  RH WIND       PRES   REMARKS
LEWISBURG      CLEAR     78  69  73 CALM      30.03R
FAYETTEVILLE   CLEAR     75  70  83 S5        30.07R
TULLAHOMA      CLEAR     75  72  88 S5        30.08R
WINCHESTER     CLEAR     75  72  88 CALM      30.07R
MCMINNVILLE    CLEAR     79  73  83 SW3       30.06R
COLUMBIA       CLEAR     79  73  83 CALM      30.02R
SHELBYVILLE    CLEAR     79  73  83 S5        30.05R
$$

TNZ017-018-042-046-047-140400-
NORTHEAST TENNESSEE

CITY           SKY/WX    TMP DP  RH WIND       PRES   REMARKS
TRI CITIES     MOCLDY    74  68  81 CALM      30.07S
ELIZABETHTON   PTCLDY    72  68  88 CALM      30.09S
$$

TNZ012-013-036-069-073-074-140400-
CENTRAL EAST TENNESSEE

CITY           SKY/WX    TMP DP  RH WIND       PRES   REMARKS
KNOXVILLE      MOCLDY    79  71  76 SW7       30.04R
OAK RIDGE      PTCLDY    77  73  87 CALM      30.05S
GATLINBURG     CLEAR     77  68  73 CALM      30.04S
MORRISTOWN     CLEAR     75  70  83 SW3       30.08R
$$

TNZ083-085-099-140400-
SOUTHEAST TENNESSEE

CITY           SKY/WX    TMP DP  RH WIND       PRES   REMARKS
CHATTANOOGA    MOCLDY    82  70  66 CALM      30.06R
$$

SKY/WX REPORTED AS FAIR MEANS FEW OR NO CLOUDS BELOW
12 THOUSAND FEET.




USA.gov is the U.S. government's official web portal to all federal, state and local government web resources and services.